,,PA_Meas_PMT16A,,PR_Meas_QMR101_102,,RH_Meas_QMH101,,SR_Meas_QMS101,,TA_Meas_QMH101,,GenWind,,GenWind,
time,status,PA,status,PR,status,RH,status,SR,status,TA,status,DirAvg,status,SpdAvg,
2013-10-26, 00:00:04,VALID,918.94,VALID,0,VALID,94.2559,VALID,0,VALID,19.5483,VALID,145,VALID,0,
2013-10-26, 00:01:04,VALID,918.943,VALID,0,VALID,94.2635,VALID,0,VALID,19.5663,VALID,145,VALID,0,
2013-10-26, 00:02:04,VALID,918.958,VALID,0,VALID,94.0882,VALID,0,VALID,19.5483,VALID,145,VALID,0,
2013-10-26, 00:03:04,VALID,918.952,VALID,0,VALID,93.9662,VALID,0,VALID,19.5483,VALID,145,VALID,0,
2013-10-26, 00:04:04,VALID,918.946,VALID,0,VALID,93.9586,VALID,0,VALID,19.5678,VALID,145,VALID,0,
2013-10-26, 00:05:04,VALID,918.926,VALID,0,VALID,93.951,VALID,0,VALID,19.5483,VALID,145,VALID,0,
2013-10-26, 00:06:04,VALID,918.953,VALID,0,VALID,93.9662,VALID,0,VALID,19.5483,VALID,145,VALID,0,
2013-10-26, 00:07:04,VALID,918.93,VALID,0,VALID,94.0882,VALID,0,VALID,19.5483,VALID,145,VALID,0,
2013-10-26, 00:08:04,VALID,918.921,VALID,0,VALID,94.1568,VALID,0,VALID,19.5273,VALID,145,VALID,0,
2013-10-26, 00:09:04,VALID,918.898,VALID,0,VALID,94.0653,VALID,0,VALID,19.5288,VALID,141,VALID,0,
2013-10-26, 00:10:04,VALID,918.882,VALID,0,VALID,93.9815,VALID,0,VALID,19.5093,VALID,122,VALID,0,
2013-10-26, 00:11:04,VALID,918.882,VALID,0,VALID,93.9738,VALID,0,VALID,19.5108,VALID,122,VALID,0,
2013-10-26, 00:12:04,VALID,918.854,VALID,0,VALID,94.0043,VALID,0,VALID,19.4898,VALID,122,VALID,0,
2013-10-26, 00:13:04,VALID,918.861,VALID,0,VALID,94.0577,VALID,0,VALID,19.4703,VALID,122,VALID,0,
2013-10-26, 00:14:04,VALID,918.838,VALID,0,VALID,94.1339,VALID,0,VALID,19.4508,VALID,122,VALID,0,
2013-10-26, 00:15:04,VALID,918.864,VALID,0,VALID,94.2254,VALID,0,VALID,19.4313,VALID,122,VALID,0,
2013-10-26, 00:16:04,VALID,918.842,VALID,0,VALID,94.3703,VALID,0,VALID,19.4313,VALID,132,VALID,0,
2013-10-26, 00:17:04,VALID,918.852,VALID,0,VALID,94.4313,VALID,0,VALID,19.4313,VALID,140,VALID,0,
2013-10-26, 00:18:04,VALID,918.826,VALID,0,VALID,94.477,VALID,0,VALID,19.4118,VALID,138,VALID,0,
2013-10-26, 00:19:04,VALID,918.844,VALID,0,VALID,94.4922,VALID,0,VALID,19.4118,VALID,142,VALID,0,
2013-10-26, 00:20:04,VALID,918.82,VALID,0,VALID,94.4617,VALID,0,VALID,19.3923,VALID,139,VALID,0,
2013-10-26, 00:21:04,VALID,918.802,VALID,0,VALID,94.538,VALID,0,VALID,19.3923,VALID,124,VALID,0,
2013-10-26, 00:22:04,VALID,918.776,VALID,0,VALID,94.5837,VALID,0,VALID,19.3728,VALID,132,VALID,0,
2013-10-26, 00:23:04,VALID,918.758,VALID,0,VALID,94.6295,VALID,0,VALID,19.3937,VALID,133,VALID,0,
2013-10-26, 00:24:04,VALID,918.785,VALID,0,VALID,94.7057,VALID,0,VALID,19.3533,VALID,133,VALID,0,
2013-10-26, 00:25:04,VALID,918.778,VALID,0,VALID,94.7743,VALID,0,VALID,19.3338,VALID,133,VALID,0,
2013-10-26, 00:26:04,VALID,918.756,VALID,0,VALID,94.8734,VALID,0,VALID,19.3338,VALID,133,VALID,0,
2013-10-26, 00:27:04,VALID,918.75,VALID,0,VALID,94.9878,VALID,0,VALID,19.3338,VALID,136,VALID,0,
2013-10-26, 00:28:04,VALID,918.754,VALID,0,VALID,95.0869,VALID,0,VALID,19.3547,VALID,136,VALID,0,
2013-10-26, 00:29:04,VALID,918.784,VALID,0,VALID,95.1479,VALID,0,VALID,19.3143,VALID,137,VALID,0,
2013-10-26, 00:30:04,VALID,918.762,VALID,0,VALID,95.2241,VALID,0,VALID,19.3338,VALID,137,VALID,0,
2013-10-26, 00:31:04,VALID,918.782,VALID,0,VALID,95.3079,VALID,0,VALID,19.3728,VALID,153,VALID,0,
2013-10-26, 00:32:04,VALID,918.795,VALID,0,VALID,95.3461,VALID,0,VALID,19.3533,VALID,151,VALID,0,
2013-10-26, 00:33:04,VALID,918.763,VALID,0,VALID,95.3842,VALID,0,VALID,19.3728,VALID,141,VALID,0,
2013-10-26, 00:34:04,VALID,918.777,VALID,0,VALID,95.4452,VALID,0,VALID,19.3728,VALID,133,VALID,0,
2013-10-26, 00:35:04,VALID,918.787,VALID,0,VALID,95.4299,VALID,0,VALID,19.3533,VALID,127,VALID,0,
2013-10-26, 00:36:04,VALID,918.801,VALID,0,VALID,95.4757,VALID,0,VALID,19.3323,VALID,122,VALID,0,
2013-10-26, 00:37:04,VALID,918.807,VALID,0,VALID,95.4833,VALID,0,VALID,19.3143,VALID,121,VALID,0,
2013-10-26, 00:38:04,VALID,918.785,VALID,0,VALID,95.5443,VALID,0,VALID,19.3143,VALID,110,VALID,0,
2013-10-26, 00:39:04,VALID,918.814,VALID,0,VALID,95.5976,VALID,0,VALID,19.3143,VALID,110,VALID,0,
2013-10-26, 00:40:04,VALID,918.77,VALID,0,VALID,95.6357,VALID,0,VALID,19.2948,VALID,93,VALID,0,
2013-10-26, 00:41:04,VALID,918.756,VALID,0,VALID,95.7044,VALID,0,VALID,19.2753,VALID,101,VALID,0,
2013-10-26, 00:42:04,VALID,918.726,VALID,0,VALID,95.7044,VALID,0,VALID,19.2543,VALID,95,VALID,0,
2013-10-26, 00:43:04,VALID,918.726,VALID,0,VALID,95.7425,VALID,0,VALID,19.2558,VALID,92,VALID,0,
2013-10-26, 00:44:04,VALID,918.699,VALID,0,VALID,95.7425,VALID,0,VALID,19.2363,VALID,81,VALID,0,
2013-10-26, 00:45:04,VALID,918.663,VALID,0,VALID,95.7577,VALID,0,VALID,19.2543,VALID,62,VALID,0,
2013-10-26, 00:46:04,VALID,918.675,VALID,0,VALID,95.7958,VALID,0,VALID,19.2558,VALID,63,VALID,0,
2013-10-26, 00:47:04,VALID,918.663,VALID,0,VALID,95.7882,VALID,0.107441,VALID,19.2348,VALID,63,VALID,0,
2013-10-26, 00:48:04,VALID,918.64,VALID,0,VALID,95.834,VALID,0,VALID,19.2348,VALID,62,VALID,0,
2013-10-26, 00:49:04,VALID,918.618,VALID,0,VALID,95.8492,VALID,0,VALID,19.2558,VALID,63,VALID,0,
2013-10-26, 00:50:04,VALID,918.636,VALID,0,VALID,95.8568,VALID,0,VALID,19.2363,VALID,66,VALID,0,
2013-10-26, 00:51:04,VALID,918.626,VALID,0,VALID,95.9026,VALID,0,VALID,19.2363,VALID,71,VALID,0,
2013-10-26, 00:52:04,VALID,918.638,VALID,0,VALID,95.9178,VALID,0,VALID,19.2348,VALID,76,VALID,0,
2013-10-26, 00:53:04,VALID,918.643,VALID,0,VALID,95.9559,VALID,0,VALID,19.2153,VALID,114,VALID,0,
2013-10-26, 00:54:04,VALID,918.62,VALID,0,VALID,95.9712,VALID,0,VALID,19.2348,VALID,136,VALID,0,
2013-10-26, 00:55:04,VALID,918.638,VALID,0,VALID,96.0093,VALID,0,VALID,19.2558,VALID,142,VALID,0,
2013-10-26, 00:56:04,VALID,918.652,VALID,0,VALID,96.0474,VALID,0,VALID,19.2348,VALID,151,VALID,0,
2013-10-26, 00:57:04,VALID,918.648,VALID,0,VALID,96.055,VALID,0,VALID,19.2753,VALID,157,VALID,0,
2013-10-26, 00:58:04,VALID,918.643,VALID,0,VALID,96.0932,VALID,0,VALID,19.2348,VALID,142,VALID,0,
2013-10-26, 00:59:04,VALID,918.606,VALID,0,VALID,96.1313,VALID,0,VALID,19.2558,VALID,145,VALID,0,
2013-10-26, 01:00:04,VALID,918.577,VALID,0,VALID,96.1618,VALID,0,VALID,19.2558,VALID,143,VALID,0,
2013-10-26, 01:01:04,VALID,918.604,VALID,0,VALID,96.1923,VALID,0,VALID,19.2558,VALID,140,VALID,0,
2013-10-26, 01:02:04,VALID,918.586,VALID,0,VALID,96.2609,VALID,0,VALID,19.2363,VALID,146,VALID,0,
2013-10-26, 01:03:04,VALID,918.581,VALID,0,VALID,96.2533,VALID,0,VALID,19.2168,VALID,140,VALID,0,
2013-10-26, 01:04:04,VALID,918.568,VALID,0,VALID,96.299,VALID,0,VALID,19.2363,VALID,132,VALID,0,
2013-10-26, 01:05:04,VALID,918.575,VALID,0,VALID,96.299,VALID,0,VALID,19.2363,VALID,131,VALID,0,
2013-10-26, 01:06:04,VALID,918.557,VALID,0,VALID,96.299,VALID,0,VALID,19.2558,VALID,129,VALID,0,
2013-10-26, 01:07:04,VALID,918.557,VALID,0,VALID,96.3295,VALID,0,VALID,19.2558,VALID,137,VALID,0,
2013-10-26, 01:08:04,VALID,918.575,VALID,0,VALID,96.3371,VALID,0,VALID,19.2753,VALID,137,VALID,0,
2013-10-26, 01:09:04,VALID,918.561,VALID,0,VALID,96.3447,VALID,0,VALID,19.2948,VALID,137,VALID,0,
2013-10-26, 01:10:04,VALID,918.557,VALID,0,VALID,96.3142,VALID,0,VALID,19.2738,VALID,137,VALID,0,
2013-10-26, 01:11:04,VALID,918.532,VALID,0,VALID,96.3219,VALID,0,VALID,19.2948,VALID,137,VALID,0,
2013-10-26, 01:12:04,VALID,918.54,VALID,0,VALID,96.3219,VALID,0,VALID,19.2738,VALID,137,VALID,0,
2013-10-26, 01:13:04,VALID,918.511,VALID,0,VALID,96.2914,VALID,0,VALID,19.2948,VALID,137,VALID,0,
2013-10-26, 01:14:04,VALID,918.496,VALID,0,VALID,96.2609,VALID,0,VALID,19.2948,VALID,133,VALID,0,
2013-10-26, 01:15:04,VALID,918.495,VALID,0,VALID,96.2456,VALID,0,VALID,19.2948,VALID,122,VALID,0,
2013-10-26, 01:16:04,VALID,918.467,VALID,0,VALID,96.2228,VALID,0,VALID,19.3143,VALID,110,VALID,0,
2013-10-26, 01:17:04,VALID,918.477,VALID,0,VALID,96.177,VALID,0,VALID,19.3143,VALID,101,VALID,0,
2013-10-26, 01:18:04,VALID,918.449,VALID,0,VALID,96.1236,VALID,0,VALID,19.3143,VALID,101,VALID,0,
2013-10-26, 01:19:04,VALID,918.444,VALID,0,VALID,96.0855,VALID,0,VALID,19.2753,VALID,101,VALID,0,
2013-10-26, 01:20:04,VALID,918.411,VALID,0,VALID,96.0627,VALID,0,VALID,19.2738,VALID,106,VALID,0,
2013-10-26, 01:21:04,VALID,918.409,VALID,0,VALID,96.0322,VALID,0,VALID,19.2753,VALID,105,VALID,0,
2013-10-26, 01:22:04,VALID,918.391,VALID,0,VALID,96.0398,VALID,0,VALID,19.2558,VALID,105,VALID,0,
2013-10-26, 01:23:04,VALID,918.376,VALID,0,VALID,96.0398,VALID,0,VALID,19.2558,VALID,105,VALID,0,
2013-10-26, 01:24:04,VALID,918.346,VALID,0,VALID,96.0322,VALID,0,VALID,19.2753,VALID,105,VALID,0,
2013-10-26, 01:25:04,VALID,918.344,VALID,0,VALID,96.0779,VALID,0,VALID,19.2948,VALID,105,VALID,0,
2013-10-26, 01:26:04,VALID,918.352,VALID,0,VALID,96.0932,VALID,0,VALID,19.3338,VALID,105,VALID,0,
2013-10-26, 01:27:04,VALID,918.327,VALID,0,VALID,96.1008,VALID,0,VALID,19.3143,VALID,105,VALID,0,
2013-10-26, 01:28:04,VALID,918.312,VALID,0,VALID,96.1084,VALID,0,VALID,19.3143,VALID,105,VALID,0,
2013-10-26, 01:29:04,VALID,918.28,VALID,0,VALID,96.116,VALID,0,VALID,19.3143,VALID,105,VALID,0,
2013-10-26, 01:30:04,VALID,918.271,VALID,0,VALID,96.0855,VALID,0,VALID,19.2933,VALID,105,VALID,0,
2013-10-26, 01:31:04,VALID,918.221,VALID,0,VALID,96.0627,VALID,0,VALID,19.2753,VALID,105,VALID,0,
2013-10-26, 01:32:04,VALID,918.192,VALID,0,VALID,96.0322,VALID,0,VALID,19.2558,VALID,105,VALID,0,
2013-10-26, 01:33:04,VALID,918.197,VALID,0,VALID,96.0245,VALID,0,VALID,19.2558,VALID,102,VALID,0,
2013-10-26, 01:34:04,VALID,918.152,VALID,0,VALID,96.0398,VALID,0,VALID,19.2558,VALID,100,VALID,0,
2013-10-26, 01:35:04,VALID,918.133,VALID,0,VALID,96.0398,VALID,0,VALID,19.2558,VALID,100,VALID,0,
2013-10-26, 01:36:04,VALID,918.106,VALID,0,VALID,96.0245,VALID,0,VALID,19.2558,VALID,100,VALID,0,
2013-10-26, 01:37:04,VALID,918.133,VALID,0,VALID,96.0169,VALID,0,VALID,19.2558,VALID,100,VALID,0,
2013-10-26, 01:38:04,VALID,918.092,VALID,0,VALID,96.0169,VALID,0,VALID,19.2363,VALID,100,VALID,0,
2013-10-26, 01:39:04,VALID,918.095,VALID,0,VALID,96.0017,VALID,0,VALID,19.2168,VALID,104,VALID,0,
2013-10-26, 01:40:04,VALID,918.064,VALID,0,VALID,96.0093,VALID,0,VALID,19.2168,VALID,126,VALID,0,
2013-10-26, 01:41:04,VALID,918.044,VALID,0,VALID,96.0017,VALID,0,VALID,19.1973,VALID,124,VALID,0,
2013-10-26, 01:42:04,VALID,918.038,VALID,0,VALID,95.9864,VALID,0,VALID,19.2168,VALID,130,VALID,0,
2013-10-26, 01:43:04,VALID,918.032,VALID,0,VALID,95.9864,VALID,0,VALID,19.2168,VALID,137,VALID,0,
2013-10-26, 01:44:04,VALID,918.011,VALID,0,VALID,95.9407,VALID,0,VALID,19.2168,VALID,136,VALID,0,
2013-10-26, 01:45:04,VALID,917.989,VALID,0,VALID,95.9331,VALID,0,VALID,19.2168,VALID,157,VALID,0,
2013-10-26, 01:46:04,VALID,917.954,VALID,0,VALID,95.9254,VALID,0,VALID,19.2363,VALID,152,VALID,0,
2013-10-26, 01:47:04,VALID,917.954,VALID,0,VALID,95.9483,VALID,0,VALID,19.2363,VALID,167,VALID,0,
2013-10-26, 01:48:04,VALID,917.926,VALID,0,VALID,95.9788,VALID,0,VALID,19.2558,VALID,159,VALID,0,
2013-10-26, 01:49:04,VALID,917.898,VALID,0,VALID,95.9941,VALID,0,VALID,19.2153,VALID,156,VALID,0,
2013-10-26, 01:50:04,VALID,917.875,VALID,0,VALID,95.9941,VALID,0,VALID,19.1958,VALID,167,VALID,0,
2013-10-26, 01:51:04,VALID,917.881,VALID,0,VALID,96.0169,VALID,0,VALID,19.1958,VALID,176,VALID,0,
2013-10-26, 01:52:04,VALID,917.87,VALID,0,VALID,96.0398,VALID,0,VALID,19.2168,VALID,176,VALID,0,
2013-10-26, 01:53:04,VALID,917.876,VALID,0,VALID,96.0627,VALID,0,VALID,19.2363,VALID,174,VALID,0,
2013-10-26, 01:54:04,VALID,917.869,VALID,0,VALID,96.0855,VALID,0,VALID,19.2558,VALID,174,VALID,0,
2013-10-26, 01:55:04,VALID,917.851,VALID,0,VALID,96.116,VALID,0,VALID,19.2558,VALID,174,VALID,0,
2013-10-26, 01:56:04,VALID,917.802,VALID,0,VALID,96.1389,VALID,0,VALID,19.2753,VALID,174,VALID,0,
2013-10-26, 01:57:04,VALID,917.787,VALID,0,VALID,96.1389,VALID,0,VALID,19.2363,VALID,172,VALID,0,
2013-10-26, 01:58:04,VALID,917.795,VALID,0,VALID,96.1465,VALID,0,VALID,19.1958,VALID,162,VALID,0,
2013-10-26, 01:59:04,VALID,917.763,VALID,0,VALID,96.1541,VALID,0,VALID,19.1958,VALID,168,VALID,0,
2013-10-26, 02:00:04,VALID,917.782,VALID,0,VALID,96.1389,VALID,0,VALID,19.2168,VALID,156,VALID,0,
2013-10-26, 02:01:04,VALID,917.758,VALID,0,VALID,96.1618,VALID,0,VALID,19.2168,VALID,154,VALID,0,
2013-10-26, 02:02:04,VALID,917.732,VALID,0,VALID,96.1846,VALID,0,VALID,19.2168,VALID,165,VALID,0,
2013-10-26, 02:03:04,VALID,917.735,VALID,0,VALID,96.1923,VALID,0,VALID,19.1973,VALID,158,VALID,0,
2013-10-26, 02:04:04,VALID,917.709,VALID,0,VALID,96.177,VALID,0,VALID,19.1973,VALID,143,VALID,0,
2013-10-26, 02:05:04,VALID,917.703,VALID,0,VALID,96.1694,VALID,0,VALID,19.1973,VALID,138,VALID,0,
2013-10-26, 02:06:04,VALID,917.733,VALID,0,VALID,96.1618,VALID,0,VALID,19.1973,VALID,144,VALID,0,
2013-10-26, 02:07:04,VALID,917.669,VALID,0,VALID,96.1465,VALID,0,VALID,19.1973,VALID,149,VALID,0,
2013-10-26, 02:08:04,VALID,917.688,VALID,0,VALID,96.1389,VALID,0,VALID,19.1958,VALID,140,VALID,0,
2013-10-26, 02:09:04,VALID,917.671,VALID,0,VALID,96.1008,VALID,0,VALID,19.2168,VALID,140,VALID,0,
2013-10-26, 02:10:04,VALID,917.683,VALID,0,VALID,96.0855,VALID,0,VALID,19.2168,VALID,141,VALID,0,
2013-10-26, 02:11:04,VALID,917.653,VALID,0,VALID,96.0703,VALID,0,VALID,19.1763,VALID,132,VALID,0,
2013-10-26, 02:12:04,VALID,917.619,VALID,0,VALID,96.0245,VALID,0,VALID,19.1778,VALID,134,VALID,0,
2013-10-26, 02:13:04,VALID,917.635,VALID,0,VALID,95.9864,VALID,0,VALID,19.1973,VALID,140,VALID,0,
2013-10-26, 02:14:04,VALID,917.615,VALID,0,VALID,95.9559,VALID,0,VALID,19.1973,VALID,147,VALID,0,
2013-10-26, 02:15:04,VALID,917.574,VALID,0,VALID,95.9331,VALID,0,VALID,19.1973,VALID,152,VALID,0,
2013-10-26, 02:16:04,VALID,917.568,VALID,0,VALID,95.9254,VALID,0,VALID,19.1778,VALID,135,VALID,0,
2013-10-26, 02:17:04,VALID,917.558,VALID,0,VALID,95.9102,VALID,0,VALID,19.1778,VALID,149,VALID,0,
2013-10-26, 02:18:04,VALID,917.561,VALID,0,VALID,95.895,VALID,0,VALID,19.1778,VALID,152,VALID,0,
2013-10-26, 02:19:04,VALID,917.564,VALID,0,VALID,95.9026,VALID,0,VALID,19.1778,VALID,166,VALID,0,
2013-10-26, 02:20:04,VALID,917.565,VALID,0,VALID,95.9102,VALID,0,VALID,19.1973,VALID,155,VALID,0,
2013-10-26, 02:21:04,VALID,917.6,VALID,0,VALID,95.9102,VALID,0,VALID,19.1778,VALID,165,VALID,0,
2013-10-26, 02:22:04,VALID,917.545,VALID,0,VALID,95.9331,VALID,0,VALID,19.1778,VALID,165,VALID,0,
2013-10-26, 02:23:04,VALID,917.516,VALID,0,VALID,95.9559,VALID,0,VALID,19.1568,VALID,165,VALID,0,
2013-10-26, 02:24:04,VALID,917.525,VALID,0,VALID,96.0169,VALID,0,VALID,19.1973,VALID,161,VALID,0,
2013-10-26, 02:25:04,VALID,917.489,VALID,0,VALID,96.0017,VALID,0,VALID,19.1568,VALID,137,VALID,0,
2013-10-26, 02:26:04,VALID,917.505,VALID,0,VALID,96.0169,VALID,0.107441,VALID,19.1373,VALID,145,VALID,0,
2013-10-26, 02:27:04,VALID,917.485,VALID,0,VALID,96.055,VALID,0,VALID,19.1373,VALID,143,VALID,0,
2013-10-26, 02:28:04,VALID,917.424,VALID,0,VALID,96.0398,VALID,0,VALID,19.1373,VALID,143,VALID,0,
2013-10-26, 02:29:04,VALID,917.427,VALID,0,VALID,96.0855,VALID,0,VALID,19.1178,VALID,146,VALID,0,
2013-10-26, 02:30:04,VALID,917.377,VALID,0,VALID,96.0932,VALID,0,VALID,19.1193,VALID,149,VALID,0,
2013-10-26, 02:31:04,VALID,917.378,VALID,0,VALID,96.116,VALID,0,VALID,19.1193,VALID,152,VALID,0,
2013-10-26, 02:32:04,VALID,917.345,VALID,0,VALID,96.1236,VALID,0,VALID,19.0998,VALID,164,VALID,0,
2013-10-26, 02:33:04,VALID,917.313,VALID,0,VALID,96.1236,VALID,0,VALID,19.1193,VALID,134,VALID,0,
2013-10-26, 02:34:04,VALID,917.311,VALID,0,VALID,96.116,VALID,0,VALID,19.0788,VALID,135,VALID,0,
2013-10-26, 02:35:04,VALID,917.282,VALID,0,VALID,96.1236,VALID,0,VALID,19.0998,VALID,138,VALID,0,
2013-10-26, 02:36:04,VALID,917.235,VALID,0,VALID,96.0932,VALID,0,VALID,19.0998,VALID,134,VALID,0,
2013-10-26, 02:37:05,VALID,917.233,VALID,0,VALID,96.1008,VALID,0,VALID,19.0803,VALID,135,VALID,0,
2013-10-26, 02:38:05,VALID,917.214,VALID,0,VALID,96.0932,VALID,0,VALID,19.0788,VALID,145,VALID,0,
2013-10-26, 02:39:05,VALID,917.188,VALID,0,VALID,96.0703,VALID,0,VALID,19.0593,VALID,148,VALID,0,
2013-10-26, 02:40:05,VALID,917.165,VALID,0,VALID,96.0627,VALID,0,VALID,19.0608,VALID,139,VALID,0,
2013-10-26, 02:41:05,VALID,917.174,VALID,0,VALID,96.0627,VALID,0,VALID,19.0608,VALID,126,VALID,0,
2013-10-26, 02:42:05,VALID,917.14,VALID,0,VALID,96.0474,VALID,0,VALID,19.0788,VALID,142,VALID,0,
2013-10-26, 02:43:05,VALID,917.143,VALID,0,VALID,96.0169,VALID,0,VALID,19.0998,VALID,145,VALID,0,
2013-10-26, 02:44:05,VALID,917.154,VALID,0,VALID,95.9864,VALID,0,VALID,19.1193,VALID,150,VALID,0,
2013-10-26, 02:45:05,VALID,917.141,VALID,0,VALID,95.9636,VALID,0,VALID,19.0983,VALID,148,VALID,0,
2013-10-26, 02:46:05,VALID,917.19,VALID,0,VALID,95.9102,VALID,0,VALID,19.1388,VALID,153,VALID,0,
2013-10-26, 02:47:05,VALID,917.17,VALID,0,VALID,95.8873,VALID,0,VALID,19.1388,VALID,144,VALID,0,
2013-10-26, 02:48:05,VALID,917.189,VALID,0,VALID,95.8645,VALID,0,VALID,19.1388,VALID,145,VALID,0,
2013-10-26, 02:49:05,VALID,917.193,VALID,0,VALID,95.8416,VALID,0,VALID,19.1388,VALID,145,VALID,0,
2013-10-26, 02:50:05,VALID,917.188,VALID,0,VALID,95.8035,VALID,0.107441,VALID,19.1178,VALID,143,VALID,0,
2013-10-26, 02:51:05,VALID,917.183,VALID,0,VALID,95.7806,VALID,0.107441,VALID,19.1178,VALID,142,VALID,0,
2013-10-26, 02:52:05,VALID,917.181,VALID,0,VALID,95.773,VALID,0.107441,VALID,19.0983,VALID,120,VALID,0,
2013-10-26, 02:53:05,VALID,917.21,VALID,0,VALID,95.773,VALID,0.107441,VALID,19.0788,VALID,156,VALID,0,
2013-10-26, 02:54:05,VALID,917.222,VALID,0,VALID,95.7882,VALID,0.107441,VALID,19.0593,VALID,142,VALID,0,
2013-10-26, 02:55:05,VALID,917.235,VALID,0,VALID,95.7958,VALID,0.107441,VALID,19.0593,VALID,151,VALID,0,
2013-10-26, 02:56:05,VALID,917.218,VALID,0,VALID,95.8263,VALID,0.107441,VALID,19.0593,VALID,167,VALID,0,
2013-10-26, 02:57:05,VALID,917.251,VALID,0,VALID,95.8568,VALID,0.107441,VALID,19.0384,VALID,153,VALID,0,
2013-10-26, 02:58:05,VALID,917.226,VALID,0,VALID,95.8873,VALID,0.107441,VALID,19.0593,VALID,147,VALID,0,
2013-10-26, 02:59:05,VALID,917.243,VALID,0,VALID,95.8873,VALID,0.107441,VALID,19.0579,VALID,171,VALID,0,
2013-10-26, 03:00:05,VALID,917.223,VALID,0,VALID,95.895,VALID,0.107441,VALID,19.0983,VALID,147,VALID,0,
2013-10-26, 03:01:05,VALID,917.227,VALID,0,VALID,95.9178,VALID,0.107441,VALID,19.0788,VALID,143,VALID,0,
2013-10-26, 03:02:05,VALID,917.211,VALID,0,VALID,95.9407,VALID,0.107441,VALID,19.0788,VALID,154,VALID,0,
2013-10-26, 03:03:05,VALID,917.22,VALID,0,VALID,95.9559,VALID,0.107441,VALID,19.0983,VALID,165,VALID,0,
2013-10-26, 03:04:05,VALID,917.227,VALID,0,VALID,95.9559,VALID,0.107441,VALID,19.0774,VALID,156,VALID,0,
2013-10-26, 03:05:05,VALID,917.177,VALID,0,VALID,95.9712,VALID,0,VALID,19.0803,VALID,144,VALID,0,
2013-10-26, 03:06:05,VALID,917.182,VALID,0,VALID,95.9712,VALID,0,VALID,19.0593,VALID,128,VALID,0,
2013-10-26, 03:07:05,VALID,917.181,VALID,0,VALID,95.9864,VALID,0,VALID,19.0998,VALID,140,VALID,0,
2013-10-26, 03:08:05,VALID,917.149,VALID,0,VALID,95.9864,VALID,0,VALID,19.0998,VALID,151,VALID,0,
2013-10-26, 03:09:05,VALID,917.165,VALID,0,VALID,95.9483,VALID,0,VALID,19.0998,VALID,161,VALID,0,
2013-10-26, 03:10:05,VALID,917.167,VALID,0,VALID,95.9331,VALID,0,VALID,19.0998,VALID,159,VALID,0,
2013-10-26, 03:11:05,VALID,917.174,VALID,0,VALID,95.8721,VALID,0,VALID,19.0998,VALID,156,VALID,0,
2013-10-26, 03:12:05,VALID,917.169,VALID,0,VALID,95.8035,VALID,0,VALID,19.0788,VALID,166,VALID,0,
2013-10-26, 03:13:05,VALID,917.141,VALID,0,VALID,95.7501,VALID,0,VALID,19.0788,VALID,144,VALID,0,
2013-10-26, 03:14:05,VALID,917.149,VALID,0,VALID,95.6281,VALID,0,VALID,19.0803,VALID,140,VALID,0,
2013-10-26, 03:15:05,VALID,917.128,VALID,0,VALID,95.4833,VALID,0,VALID,19.0998,VALID,139,VALID,0,
2013-10-26, 03:16:05,VALID,917.137,VALID,0,VALID,95.3384,VALID,0,VALID,19.0788,VALID,134,VALID,0,
2013-10-26, 03:17:05,VALID,917.143,VALID,0,VALID,95.1936,VALID,0,VALID,19.0803,VALID,130,VALID,0,
2013-10-26, 03:18:05,VALID,917.118,VALID,0,VALID,95.0411,VALID,0,VALID,19.0608,VALID,127,VALID,0,
2013-10-26, 03:19:05,VALID,917.128,VALID,0,VALID,94.8963,VALID,0,VALID,19.0608,VALID,120,VALID,0,
2013-10-26, 03:20:05,VALID,917.132,VALID,0,VALID,94.7438,VALID,0,VALID,19.0608,VALID,120,VALID,0,
2013-10-26, 03:21:05,VALID,917.123,VALID,0,VALID,94.6142,VALID,0,VALID,19.0608,VALID,120,VALID,0,
2013-10-26, 03:22:05,VALID,917.155,VALID,0,VALID,94.5837,VALID,0,VALID,19.0218,VALID,120,VALID,0,
2013-10-26, 03:23:05,VALID,917.164,VALID,0,VALID,94.5837,VALID,0,VALID,19.0023,VALID,58,VALID,0,
2013-10-26, 03:24:05,VALID,917.197,VALID,0,VALID,94.6905,VALID,0,VALID,18.9828,VALID,58,VALID,0,
2013-10-26, 03:25:05,VALID,917.183,VALID,0,VALID,94.7896,VALID,0,VALID,18.9438,VALID,58,VALID,0,
2013-10-26, 03:26:05,VALID,917.186,VALID,0,VALID,94.8734,VALID,0,VALID,18.9048,VALID,58,VALID,0,
2013-10-26, 03:27:05,VALID,917.161,VALID,0,VALID,95.0259,VALID,0,VALID,18.8658,VALID,58,VALID,0,
2013-10-26, 03:28:05,VALID,917.17,VALID,0,VALID,95.1936,VALID,0,VALID,18.8658,VALID,58,VALID,0,
2013-10-26, 03:29:05,VALID,917.178,VALID,0,VALID,95.4452,VALID,0,VALID,18.8463,VALID,22,VALID,0,
2013-10-26, 03:30:05,VALID,917.174,VALID,0,VALID,95.5671,VALID,0,VALID,18.8268,VALID,20,VALID,0,
2013-10-26, 03:31:05,VALID,917.177,VALID,0,VALID,95.7196,VALID,0,VALID,18.7878,VALID,20,VALID,0,
2013-10-26, 03:32:05,VALID,917.158,VALID,0,VALID,95.834,VALID,0,VALID,18.7669,VALID,21,VALID,0,
2013-10-26, 03:33:05,VALID,917.136,VALID,0,VALID,95.9102,VALID,0,VALID,18.7683,VALID,43,VALID,0,
2013-10-26, 03:34:05,VALID,917.181,VALID,0,VALID,96.0093,VALID,0,VALID,18.7878,VALID,43,VALID,0,
2013-10-26, 03:35:05,VALID,917.149,VALID,0,VALID,96.116,VALID,0,VALID,18.7878,VALID,42,VALID,0,
2013-10-26, 03:36:05,VALID,917.161,VALID,0,VALID,96.1541,VALID,0,VALID,18.7697,VALID,40,VALID,0,
2013-10-26, 03:37:05,VALID,917.177,VALID,0,VALID,96.2151,VALID,0,VALID,18.7488,VALID,40,VALID,0,
2013-10-26, 03:38:05,VALID,917.21,VALID,0,VALID,96.2685,VALID,0,VALID,18.7488,VALID,40,VALID,0,
2013-10-26, 03:39:05,VALID,917.219,VALID,0,VALID,96.299,VALID,0,VALID,18.7488,VALID,40,VALID,0,
2013-10-26, 03:40:05,VALID,917.211,VALID,0,VALID,96.36,VALID,0,VALID,18.7669,VALID,40,VALID,0,
2013-10-26, 03:41:05,VALID,917.211,VALID,0,VALID,96.421,VALID,0,VALID,18.7878,VALID,40,VALID,0,
2013-10-26, 03:42:05,VALID,917.232,VALID,0,VALID,96.4515,VALID,0,VALID,18.7878,VALID,40,VALID,0,
2013-10-26, 03:43:05,VALID,917.213,VALID,0,VALID,96.4667,VALID,0,VALID,18.7878,VALID,40,VALID,0,
2013-10-26, 03:44:05,VALID,917.23,VALID,0,VALID,96.4819,VALID,0,VALID,18.7683,VALID,20,VALID,0,
2013-10-26, 03:45:05,VALID,917.206,VALID,0,VALID,96.5201,VALID,0,VALID,18.7474,VALID,20,VALID,0,
2013-10-26, 03:46:05,VALID,917.26,VALID,0,VALID,96.5506,VALID,0,VALID,18.7683,VALID,20,VALID,0,
2013-10-26, 03:47:05,VALID,917.259,VALID,0,VALID,96.5506,VALID,0,VALID,18.7878,VALID,20,VALID,0,
2013-10-26, 03:48:05,VALID,917.286,VALID,0,VALID,96.5811,VALID,0,VALID,18.7683,VALID,20,VALID,0,
2013-10-26, 03:49:05,VALID,917.295,VALID,0,VALID,96.6115,VALID,0,VALID,18.7878,VALID,20,VALID,0,
2013-10-26, 03:50:05,VALID,917.3,VALID,0,VALID,96.6268,VALID,0.107441,VALID,18.7878,VALID,20,VALID,0,
2013-10-26, 03:51:05,VALID,917.299,VALID,0,VALID,96.6344,VALID,0,VALID,18.7474,VALID,20,VALID,0,
2013-10-26, 03:52:05,VALID,917.313,VALID,0,VALID,96.6573,VALID,0.107441,VALID,18.7474,VALID,20,VALID,0,
2013-10-26, 03:53:05,VALID,917.324,VALID,0,VALID,96.6573,VALID,0.107441,VALID,18.7474,VALID,20,VALID,0,
2013-10-26, 03:54:05,VALID,917.306,VALID,0,VALID,96.6954,VALID,0.107441,VALID,18.7669,VALID,20,VALID,0,
2013-10-26, 03:55:05,VALID,917.328,VALID,0,VALID,96.6725,VALID,0.107441,VALID,18.7669,VALID,20,VALID,0,
2013-10-26, 03:56:05,VALID,917.343,VALID,0,VALID,96.703,VALID,0,VALID,18.7878,VALID,20,VALID,0,
2013-10-26, 03:57:05,VALID,917.321,VALID,0,VALID,96.7107,VALID,0.107441,VALID,18.7669,VALID,20,VALID,0,
2013-10-26, 03:58:05,VALID,917.331,VALID,0,VALID,96.7183,VALID,0.107441,VALID,18.8059,VALID,20,VALID,0,